Regional Weather Roundup
Issued by NWS

Home | Current Version | Previous Version | Graphics & Text | Print | Product List | Glossary On
Versions: 1 2 3 4 5 6 7 8 9 10 11 12 13 14 15 16 17 18 19 20 21 22 23 24 25 26 27 28
000
ASUS45 KCYS 241710
RWRWY

WYOMING REGIONAL WEATHER ROUNDUP
NATIONAL WEATHER SERVICE CHEYENNE WY
1100 AM MDT SAT SEP 24 2016

NOTE:  "FAIR" INDICATES FEW OR NO CLOUDS BELOW 12,000 FEET
WITH NO SIGNIFICANT WEATHER AND/OR OBSTRUCTIONS TO VISIBILITY.

WYZ001-241800-
YELLOWSTONE NATIONAL PARK

CITY           SKY/WX    TMP DP  RH WIND       PRES   REMARKS
LK YELLOWSTONE   N/A     40  35  83 CALM      30.16R
W YELLOWSTONE  NOT AVBL

$$
WYZ002>013-054>058-071-098>099-241800-
NORTHERN WYOMING

CITY           SKY/WX    TMP DP  RH WIND       PRES   REMARKS
JACKSON        CLOUDY    45  43  93 S5        30.15R
CODY           LGT RAIN  45  42  89 SW12      30.03S
GREYBULL       LGT RAIN  47  43  86 NW13      30.00R
WORLAND        LGT RAIN  47  44  90 NW7       30.01R
SHERIDAN       RAIN      46  42  86 NW20G33   29.97R FOG
BUFFALO        LGT RAIN  44  38  79 NW20G31   29.96R
GILLETTE       LGT RAIN  47  46  97 W21       29.89R
HULETT         LGT RAIN  50  46  87 W13G23    29.84R
NEWCASTLE      CLOUDY    50  41  71 W14       29.90S

$$
WYZ014>020-022>026-101>103-241800-
CENTRAL WYOMING

CITY           SKY/WX    TMP DP  RH WIND       PRES   REMARKS
BIG PINEY      FAIR      46  37  71 NW18G26   30.11R
PINEDALE       PTSUNNY   41  37  87 NW18G24   30.11R
DUBOIS         CLOUDY    43  32  65 W17G25    30.06R
LANDER         LGT RAIN  41  40  96 E7        30.09R FOG
RIVERTON       LGT RAIN  40  38  93 NW3       30.09R
CASPER         LGT RAIN  43  41  93 W17G25    30.01R
DOUGLAS        CLOUDY    50  41  71 NW17G30   29.99R

$$
WYZ021-027>030-104>119-241800-
SOUTHERN WYOMING

CITY           SKY/WX    TMP DP  RH WIND       PRES   REMARKS
EVANSTON       CLOUDY    37  35  92 W14       30.23R WCI  28
FORT BRIDGER   CLOUDY    41  41 100 W20G25    30.22R
ROCK SPRINGS   LGT RAIN  38  37  97 W18       30.13R WCI  28
DIXON          CLOUDY    43  40  86 SW12      30.16R
RAWLINS        CLOUDY    42  36  79 SW16G26   30.10R
SARATOGA       CLOUDY    45  36  70 W14G23    30.12R
LARAMIE        CLOUDY    46  34  62 W10       30.06R
CHEYENNE       FAIR      55  39  54 S12       30.04R
TORRINGTON     FAIR      60  37  42 W23G31    29.97R
PINE BLUFFS    FAIR      55  37  50 SW12      30.04R

$$




USA.gov is the U.S. government's official web portal to all federal, state and local government web resources and services.